Location: Fort Worth, Tx
(32.7431°N, 97.3695°W)
Time: 08:37:15
(UTC-05:00)

ISS - Pass Details

Date: 19 November 2019
Orbit: 411 x 421 km, 51.6° (Epoch: 09 December)

Event Time Altitude Azimuth Distance (km) Brightness Sun altitude
Rises 20:55:34 0° 251° (WSW) 2,345 1.1 -31.2°
Reaches altitude 10° 20:57:53 10° 265° (W) 1,487 -0.1 -31.7°
Enters shadow 20:58:09 12° 268° (W) 1,399 -0.3 -31.8°
